W4JTD-13 Weather Reports


time (UTC)temp
C
wind
direction
speed
KPH
gust
KPH
rain 1hr
cm
rain 24hr
cm
rain mn
cm
humidity
%
barometer
mb
20260510093536 8 350 3.2 6.4 0.00 0.00 0.00 94 1014.4
20260510093100 8 39 3.2 6.4 0.00 0.00 0.00 94 1014.3
20260510092535 8 358 3.2 6.4 0.00 0.00 0.00 94 1014.3
20260510092037 8 30 3.2 6.4 0.00 0.00 0.00 94 1014.2
20260510091545 8 349 3.2 6.4 0.00 0.00 0.00 93 1014.3
20260510091035 8 354 4.8 4.8 0.00 0.00 0.00 94 1014.2
20260510090535 8 23 1.6 4.8 0.00 0.00 0.00 92 1014.1
20260510090044 8 226 0.0 4.8 0.00 0.00 0.00 93 1014.1
20260510085537 8 359 3.2 6.4 0.00 0.00 0.00 94 1014.0
20260510085038 8 337 3.2 6.4 0.00 0.00 0.00 93 1014.1
20260510084548 8 27 1.6 4.8 0.00 0.00 0.00 93 1014.0
20260510084035 8 345 1.6 4.8 0.00 0.00 0.00 93 1014.0
20260510083535 8 345 3.2 4.8 0.00 0.00 0.00 93 1013.9
20260510083058 8 347 0.0 4.8 0.00 0.00 0.00 92 1014.0
20260510082534 8 340 1.6 6.4 0.00 0.00 0.00 93 1013.9
20260510082034 8 23 3.2 6.4 0.00 0.00 0.00 93 1013.8
20260510081547 8 345 1.6 4.8 0.00 0.00 0.00 91 1013.6
20260510081035 8 345 3.2 4.8 0.00 0.00 0.00 92 1013.7
20260510080535 9 345 0.0 3.2 0.00 0.00 0.00 91 1013.7
20260510080045 9 0 0.0 4.8 0.00 0.00 0.00 90 1013.7
20260510075534 9 348 1.6 4.8 0.00 0.00 0.00 91 1013.6
20260510075035 9 49 1.6 4.8 0.00 0.00 0.00 91 1013.5
20260510074546 9 347 0.0 4.8 0.00 0.00 0.00 90 1013.5
20260510074034 9 343 1.6 3.2 0.00 0.00 0.00 89 1013.4
20260510073535 10 311 0.0 4.8 0.00 0.00 0.00 88 1013.4
20260510073050 10 0 0.0 6.4 0.00 0.00 0.00 89 1013.2
20260510072535 10 48 3.2 6.4 0.00 0.00 0.00 90 1013.2
20260510072035 9 335 3.2 6.4 0.00 0.00 0.00 90 1013.2
20260510071540 9 5 1.6 6.4 0.00 0.00 0.00 90 1013.3
20260510071034 9 1 1.6 6.4 0.00 0.00 0.00 90 1013.4
20260510070534 9 335 1.6 6.4 0.00 0.00 0.00 90 1013.3
20260510070041 9 347 4.8 6.4 0.00 0.00 0.00 90 1013.4
20260510065537 9 10 3.2 6.4 0.00 0.00 0.00 90 1013.4
20260510065035 9 360 1.6 3.2 0.00 0.00 0.00 89 1013.5
20260510064540 10 21 3.2 8.0 0.00 0.00 0.00 88 1013.5
20260510064034 10 360 1.6 8.0 0.00 0.00 0.00 88 1013.4
20260510063534 10 4 4.8 8.0 0.00 0.00 0.00 89 1013.3
20260510063045 9 181 1.6 6.4 0.00 0.00 0.00 89 1013.2
20260510062537 10 347 3.2 6.4 0.00 0.00 0.00 88 1013.3
20260510062035 10 341 3.2 9.7 0.00 0.00 0.00 86 1013.2
20260510061540 10 5 3.2 16.1 0.00 0.00 0.00 85 1013.3
20260510061035 10 19 4.8 16.1 0.00 0.00 0.00 84 1013.2
20260510060535 11 25 8.0 16.1 0.00 0.00 0.00 85 1013.2
20260510060044 10 357 8.0 12.9 0.00 0.00 0.00 87 1013.4
20260510055535 10 344 4.8 11.3 0.00 0.00 0.00 87 1013.4
20260510055034 10 352 4.8 11.3 0.00 0.00 0.00 87 1013.5
20260510054541 10 353 6.4 9.7 0.00 0.00 0.00 86 1013.4
20260510054036 10 343 3.2 6.4 0.00 0.00 0.00 85 1013.6
20260510053535 10 11 3.2 6.4 0.00 0.00 0.00 83 1013.6
20260510053047 11 0 1.6 4.8 0.00 0.00 0.00 81 1013.6
20260510052535 11 0 0.0 12.9 0.00 0.00 0.00 80 1013.6
20260510052035 11 345 4.8 12.9 0.00 0.00 0.00 82 1013.5
20260510051557 10 15 8.0 12.9 0.00 0.00 0.00 84 1013.3
20260510051037 11 1 4.8 11.3 0.00 0.00 0.00 83 1013.2
20260510050535 11 352 3.2 11.3 0.00 0.00 0.00 84 1013.3
20260510050048 10 321 6.4 11.3 0.00 0.00 0.00 85 1013.4
20260510045535 9 322 6.4 11.3 0.00 0.00 0.00 88 1013.4
20260510045034 9 13 4.8 9.7 0.00 0.00 0.00 87 1013.5
20260510044601 9 328 1.6 16.1 0.00 0.00 0.00 87 1013.4
20260510044036 10 337 6.4 16.1 0.00 0.00 0.00 86 1013.4
20260510043535 9 53 3.2 9.7 0.00 0.00 0.00 87 1013.5
20260510043050 9 336 8.0 9.7 0.00 0.00 0.00 87 1013.5
20260510042536 9 0 3.2 9.7 0.00 0.00 0.00 87 1013.5
20260510042034 9 11 4.8 9.7 0.00 0.00 0.00 88 1013.6
20260510041547 9 345 3.2 9.7 0.00 0.00 0.00 87 1013.7
20260510041034 10 3 3.2 9.7 0.00 0.00 0.00 86 1013.6
20260510040535 10 350 4.8 9.7 0.00 0.00 0.00 87 1013.7
20260510040051 9 358 4.8 9.7 0.00 0.00 0.00 86 1013.6
20260510035534 10 271 1.6 11.3 0.00 0.00 0.00 86 1013.9
20260510035034 10 0 4.8 11.3 0.00 0.00 0.00 86 1013.8
20260510034547 10 2 6.4 11.3 0.00 0.00 0.00 86 1013.9
20260510034035 10 359 6.4 9.7 0.00 0.00 0.00 85 1013.8
20260510033535 10 8 6.4 9.7 0.00 0.00 0.00 85 1013.9
20260510033047 10 8 8.0 9.7 0.00 0.00 0.00 85 1013.7
20260510032536 10 25 3.2 9.7 0.00 0.00 0.00 85 1013.8
20260510032034 10 6 6.4 11.3 0.00 0.00 0.00 85 1013.7
20260510031542 10 343 6.4 11.3 0.00 0.00 0.00 86 1013.9
20260510031034 10 17 6.4 9.7 0.00 0.00 0.00 86 1013.8
20260510030534 10 37 6.4 9.7 0.00 0.00 0.00 86 1013.8
20260510030056 10 354 4.8 8.0 0.00 0.00 0.00 86 1013.9
20260510025534 10 342 1.6 8.0 0.00 0.00 0.00 85 1013.9
20260510025035 10 354 4.8 8.0 0.00 0.00 0.00 85 1013.8
20260510024541 10 351 4.8 6.4 0.00 0.00 0.00 84 1013.8
20260510024034 10 359 4.8 6.4 0.00 0.00 0.00 84 1013.8
20260510023535 10 11 4.8 8.0 0.00 0.00 0.00 83 1013.7
20260510023047 10 345 4.8 8.0 0.00 0.00 0.00 83 1013.7
20260510022608 11 347 3.2 6.4 0.00 0.00 0.00 83 1013.6
20260510022033 11 325 0.0 6.4 0.00 0.00 0.00 82 1013.5
20260510021543 11 339 4.8 6.4 0.00 0.00 0.00 83 1013.3
20260510021034 11 346 1.6 6.4 0.00 0.00 0.00 81 1013.2
20260510020538 11 0 0.0 6.4 0.00 0.00 0.00 81 1013.2
20260510020047 11 0 1.6 8.0 0.00 0.00 0.00 80 1013.0
20260510015534 11 0 0.0 8.0 0.00 0.00 0.00 80 1012.8
20260510015034 11 347 4.8 9.7 0.00 0.00 0.00 80 1012.7
20260510014547 11 12 6.4 9.7 0.00 0.00 0.00 80 1012.7
20260510014034 11 6 6.4 8.0 0.00 0.00 0.00 80 1012.7
20260510013538 12 356 4.8 6.4 0.00 0.00 0.00 79 1012.5
20260510013046 12 6 1.6 8.0 0.00 0.00 0.00 78 1012.5
20260510012536 12 355 4.8 8.0 0.00 0.00 0.00 77 1012.4
20260510012034 12 343 4.8 6.4 0.00 0.00 0.00 76 1012.1
20260510011548 12 352 1.6 9.7 0.00 0.00 0.00 76 1012.1
20260510011035 12 341 3.2 9.7 0.00 0.00 0.00 75 1012.2
20260510010535 12 340 4.8 6.4 0.00 0.00 0.00 75 1012.1
20260510010044 13 354 0.0 4.8 0.00 0.00 0.00 74 1012.2
20260510005534 13 354 1.6 8.0 0.00 0.00 0.00 73 1012.1
20260510005033 13 350 1.6 8.0 0.00 0.00 0.00 72 1012.0
20260510004552 14 356 0.0 6.4 0.00 0.00 0.00 70 1011.9
20260510004038 14 357 1.6 6.4 0.00 0.00 0.00 68 1011.9
20260510003534 15 285 1.6 4.8 0.00 0.00 0.00 66 1011.8
20260510003051 15 338 1.6 4.8 0.00 0.00 0.00 65 1011.7
20260510002534 15 0 0.0 3.2 0.00 0.00 0.00 63 1011.6
20260510002034 16 0 1.6 4.8 0.00 0.00 0.00 61 1011.6
20260510001537 16 54 1.6 4.8 0.00 0.00 0.00 61 1011.4
20260510001034 16 349 1.6 4.8 0.00 0.00 0.00 59 1011.3
20260510000535 16 280 1.6 4.8 0.00 0.00 0.00 58 1011.2
20260510000051 17 297 1.6 3.2 0.00 0.00 0.00 57 1011.2
20260509235534 17 0 0.0 4.8 0.00 0.00 0.00 52 1011.1
20260509235034 18 0 0.0 4.8 0.00 0.00 0.00 53 1011.0
20260509234544 18 283 1.6 4.8 0.00 0.00 0.00 49 1010.9
20260509234036 19 0 1.6 9.7 0.00 0.00 0.00 48 1010.8
20260509233534 20 327 3.2 9.7 0.00 0.00 0.00 44 1010.8
20260509233043 20 345 3.2 6.4 0.00 0.00 0.00 42 1010.8
20260509232538 20 0 0.0 8.0 0.00 0.00 0.00 42 1010.8
20260509232034 21 6 1.6 8.0 0.00 0.00 0.00 41 1010.9
20260509231542 21 250 3.2 8.0 0.00 0.00 0.00 41 1010.7
20260509231033 22 0 0.0 11.3 0.00 0.00 0.00 40 1010.7
20260509230534 21 280 1.6 11.3 0.00 0.00 0.00 40 1010.6
20260509230039 21 354 4.8 14.5 0.00 0.00 0.00 40 1010.7
20260509225535 22 279 4.8 14.5 0.00 0.00 0.00 40 1010.7
20260509225034 22 312 1.6 6.4 0.00 0.00 0.00 40 1010.8
20260509224547 22 255 4.8 9.7 0.00 0.00 0.00 43 1010.6
20260509224035 22 0 1.6 12.9 0.00 0.00 0.00 39 1010.7
20260509223534 22 50 4.8 12.9 0.00 0.00 0.00 39 1010.7
20260509223045 22 123 3.2 16.1 0.00 0.00 0.00 38 1010.7
20260509222534 22 323 9.7 16.1 0.00 0.00 0.00 38 1010.5
20260509222036 22 352 4.8 17.7 0.00 0.00 0.00 39 1010.6
20260509221542 22 181 3.2 17.7 0.00 0.00 0.00 41 1010.5
20260509221034 22 172 3.2 16.1 0.00 0.00 0.00 40 1010.6
20260509220533 21 27 6.4 16.1 0.00 0.00 0.00 41 1010.4
20260509220041 21 28 4.8 17.7 0.00 0.00 0.00 41 1010.4
20260509215534 21 160 1.6 17.7 0.00 0.00 0.00 43 1010.5
20260509215033 21 318 3.2 17.7 0.00 0.00 0.00 44 1010.4
20260509214539 21 136 1.6 9.7 0.00 0.00 0.00 47 1010.3
20260509214033 21 255 4.8 9.7 0.00 0.00 0.00 45 1010.3
20260509213534 22 13 1.6 8.0 0.00 0.00 0.00 45 1010.1
20260509213038 22 201 3.2 9.7 0.00 0.00 0.00 42 1010.1
20260509212534 22 294 3.2 9.7 0.00 0.00 0.00 43 1010.1
20260509212034 22 0 0.0 4.8 0.00 0.00 0.00 45 1010.0
20260509211549 22 29 0.0 6.4 0.00 0.00 0.00 45 1010.0
20260509211037 22 129 3.2 6.4 0.00 0.00 0.00 44 1010.1
20260509210534 22 101 1.6 9.7 0.00 0.00 0.00 46 1010.1
20260509210100 21 0 1.6 9.7 0.00 0.00 0.00 47 1009.9
20260509205534 21 165 4.8 9.7 0.00 0.00 0.00 45 1009.9
20260509205034 21 180 3.2 8.0 0.00 0.00 0.00 48 1010.0
20260509204543 21 242 1.6 12.9 0.00 0.00 0.00 45 1009.9
20260509204034 22 239 4.8 12.9 0.00 0.00 0.00 43 1009.9
20260509203535 22 149 4.8 9.7 0.00 0.00 0.00 45 1009.9
20260509203042 22 226 6.4 17.7 0.00 0.00 0.00 46 1009.8
20260509202535 22 117 8.0 17.7 0.00 0.00 0.00 44 1009.7
20260509202035 22 166 4.8 11.3 0.00 0.00 0.00 47 1009.7
20260509201547 22 146 3.2 4.8 0.00 0.00 0.00 48 1009.6
20260509201035 22 259 0.0 6.4 0.00 0.00 0.00 51 1009.7
20260509200536 21 0 3.2 8.0 0.00 0.00 0.00 51 1009.7
20260509200049 21 245 3.2 9.7 0.00 0.00 0.00 47 1009.8
20260509195538 21 0 3.2 9.7 0.00 0.00 0.00 45 1009.8
20260509195039 21 0 3.2 8.0 0.00 0.00 0.00 53 1009.9
20260509194549 21 161 3.2 8.0 0.00 0.00 0.00 52 1010.0
20260509194036 21 148 3.2 6.4 0.00 0.00 0.00 51 1009.9
20260509193538 21 159 3.2 6.4 0.00 0.00 0.00 50 1009.9
20260509193045 21 159 0.0 9.7 0.00 0.00 0.00 52 1010.0
20260509192539 21 0 3.2 9.7 0.00 0.00 0.00 52 1010.0
20260509192038 21 153 4.8 8.0 0.00 0.00 0.00 54 1010.0
20260509191549 21 184 4.8 6.4 0.00 0.00 0.00 54 1010.0
20260509191035 21 200 3.2 8.0 0.00 0.00 0.00 53 1010.1
20260509190535 21 147 3.2 11.3 0.00 0.00 0.00 54 1010.2
20260509190047 21 179 6.4 11.3 0.00 0.00 0.00 53 1010.2
20260509185536 21 245 4.8 11.3 0.00 0.00 0.00 53 1010.2
20260509185035 21 161 4.8 8.0 0.00 0.00 0.00 54 1010.1
20260509184554 21 0 1.6 14.5 0.00 0.00 0.00 53 1010.1
20260509184036 21 222 4.8 14.5 0.00 0.00 0.00 52 1010.1
20260509183536 21 235 8.0 16.1 0.00 0.00 0.00 51 1010.2
20260509183048 21 158 4.8 16.1 0.00 0.00 0.00 49 1010.3
20260509182536 21 184 6.4 16.1 0.00 0.00 0.00 49 1010.3
20260509182036 21 148 4.8 14.5 0.00 0.00 0.00 52 1010.6
20260509181557 21 207 8.0 14.5 0.00 0.00 0.00 51 1010.5
20260509181038 20 153 4.8 14.5 0.00 0.00 0.00 51 1010.7
20260509180536 21 154 4.8 14.5 0.00 0.00 0.00 49 1010.7
20260509180048 21 113 4.8 11.3 0.00 0.00 0.00 49 1010.6
20260509175536 20 160 4.8 9.7 0.00 0.00 0.00 51 1010.9
20260509175036 20 124 4.8 9.7 0.00 0.00 0.00 53 1010.8
20260509174547 20 153 4.8 9.7 0.00 0.00 0.00 54 1010.9
20260509174036 20 134 4.8 9.7 0.00 0.00 0.00 54 1010.9
20260509173535 20 158 4.8 9.7 0.00 0.00 0.00 52 1010.8
20260509173049 20 161 1.6 6.4 0.00 0.00 0.00 54 1010.9
20260509172539 19 0 0.0 9.7 0.00 0.00 0.00 54 1011.0
20260509172036 19 184 1.6 9.7 0.00 0.00 0.00 55 1011.1
20260509171549 19 247 1.6 6.4 0.00 0.00 0.00 55 1011.1
20260509171035 19 236 3.2 6.4 0.00 0.00 0.00 53 1011.0
20260509170535 19 0 1.6 9.7 0.00 0.00 0.00 57 1011.1
20260509170050 19 2 1.6 9.7 0.00 0.00 0.00 55 1011.2
20260509165535 19 150 6.4 16.1 0.00 0.00 0.00 54 1011.2
20260509165037 19 168 3.2 16.1 0.00 0.00 0.00 52 1011.3
20260509164545 19 182 3.2 14.5 0.00 0.00 0.00 53 1011.2
20260509164036 19 0 3.2 14.5 0.00 0.00 0.00 51 1011.2
20260509163536 19 240 3.2 11.3 0.00 0.00 0.00 54 1011.2
20260509163042 20 155 4.8 11.3 0.00 0.00 0.00 54 1011.1
20260509162536 20 113 4.8 11.3 0.00 0.00 0.00 56 1011.2
20260509162035 19 186 4.8 11.3 0.00 0.00 0.00 53 1011.0
20260509161547 19 142 4.8 11.3 0.00 0.00 0.00 56 1010.9
20260509161035 18 111 4.8 9.7 0.00 0.00 0.00 55 1010.9
20260509160535 18 205 3.2 8.0 0.00 0.00 0.00 56 1011.0
20260509160048 18 160 4.8 12.9 0.00 0.00 0.00 56 1011.3
20260509155536 18 132 0.0 12.9 0.00 0.00 0.00 60 1011.2
20260509155037 18 241 3.2 12.9 0.00 0.00 0.00 60 1011.7
20260509154546 18 157 1.6 9.7 0.00 0.00 0.00 57 1011.6
20260509154038 18 248 1.6 8.0 0.00 0.00 0.00 57 1011.6
20260509153535 18 182 3.2 8.0 0.00 0.00 0.00 56 1011.5
20260509153059 18 0 0.0 4.8 0.00 0.00 0.00 58 1011.5
20260509152535 18 259 1.6 9.7 0.00 0.00 0.00 58 1011.5
20260509152038 18 182 1.6 9.7 0.00 0.00 0.00 57 1011.6
20260509151549 18 259 3.2 9.7 0.00 0.00 0.00 56 1011.5
20260509151037 18 143 1.6 6.4 0.00 0.00 0.00 58 1011.7
20260509150535 18 248 0.0 4.8 0.00 0.00 0.00 61 1011.6
20260509150049 18 0 1.6 8.0 0.00 0.00 0.00 58 1011.7
20260509145536 18 162 3.2 8.0 0.00 0.00 0.00 58 1011.6
20260509145036 18 0 0.0 11.3 0.00 0.00 0.00 60 1011.6
20260509144552 18 166 0.0 11.3 0.00 0.00 0.00 60 1011.7
20260509144036 18 211 1.6 11.3 0.00 0.00 0.00 63 1011.7
20260509143535 17 152 3.2 11.3 0.00 0.00 0.00 64 1011.6
20260509143049 17 109 3.2 8.0 0.00 0.00 0.00 64 1011.5
20260509142535 17 149 4.8 9.7 0.00 0.00 0.00 64 1011.4
20260509142036 17 134 4.8 9.7 0.00 0.00 0.00 65 1011.4
20260509141546 17 157 4.8 9.7 0.00 0.00 0.00 65 1011.6
20260509141036 17 198 1.6 6.4 0.00 0.00 0.00 66 1011.4
20260509140535 17 148 0.0 4.8 0.00 0.00 0.00 68 1011.3
20260509140051 16 181 3.2 6.4 0.00 0.00 0.00 69 1011.3
20260509135535 16 128 3.2 8.0 0.00 0.00 0.00 67 1011.3
20260509135036 15 163 3.2 11.3 0.00 0.00 0.00 72 1011.4
20260509134549 15 172 4.8 11.3 0.00 0.00 0.00 73 1011.7
20260509134034 15 162 8.0 9.7 0.00 0.00 0.00 75 1011.8
20260509133535 15 178 4.8 8.0 0.00 0.00 0.00 78 1011.8
20260509133040 15 241 3.2 4.8 0.00 0.00 0.00 79 1011.9
20260509132535 15 164 1.6 3.2 0.00 0.00 0.00 77 1012.0
20260509132036 14 153 1.6 3.2 0.00 0.00 0.00 80 1011.9
20260509131543 14 0 0.0 1.6 0.00 0.00 0.00 82 1011.8
20260509131035 13 0 0.0 1.6 0.00 0.00 0.00 85 1011.9
20260509130535 13 0 0.0 1.6 0.00 0.00 0.00 86 1012.0
20260509130047 12 0 0.0 1.6 0.00 0.00 0.00 87 1012.1
20260509125540 12 145 1.6 1.6 0.00 0.00 0.00 87 1012.1
20260509125035 12 262 0.0 1.6 0.00 0.00 0.00 88 1012.1
20260509124545 12 0 0.0 0.0 0.00 0.00 0.00 91 1012.2
20260509124035 11 0 0.0 0.0 0.00 0.00 0.00 90 1012.3
20260509123535 11 0 0.0 1.6 0.00 0.00 0.00 91 1012.3
20260509123043 11 0 0.0 1.6 0.00 0.00 0.00 91 1012.3
20260509122536 11 0 0.0 3.2 0.00 0.00 0.00 91 1012.3
20260509122036 10 0 0.0 3.2 0.00 0.00 0.00 91 1012.4
20260509121547 10 4 1.6 3.2 0.00 0.00 0.00 92 1012.5
20260509121036 10 0 0.0 3.2 0.00 0.00 0.00 92 1012.4
20260509120536 10 0 0.0 0.0 0.00 0.00 0.00 93 1012.4
20260509120058 9 0 0.0 0.0 0.00 0.00 0.00 93 1012.5
20260509115535 9 0 0.0 0.0 0.00 0.00 0.00 93 1012.5
20260509115035 8 0 0.0 4.8 0.00 0.00 0.00 93 1012.6
20260509114543 8 0 1.6 4.8 0.00 0.00 0.00 93 1012.5
20260509114037 8 12 3.2 4.8 0.00 0.00 0.00 94 1012.5
20260509113534 8 15 1.6 3.2 0.00 0.00 0.00 94 1012.5
20260509113045 8 0 0.0 0.0 0.00 0.00 0.00 94 1012.7
20260509112535 7 0 0.0 0.0 0.00 0.00 0.00 94 1012.5
20260509112036 7 0 0.0 0.0 0.00 0.00 0.00 94 1012.5
20260509111542 7 0 0.0 3.2 0.00 0.00 0.00 94 1012.4
20260509111036 7 0 1.6 4.8 0.00 0.00 0.00 94 1012.3
20260509110534 7 8 3.2 4.8 0.00 0.00 0.00 94 1012.3
20260509110044 7 11 1.6 4.8 0.00 0.00 0.00 94 1012.3
20260509105535 7 352 1.6 3.2 0.00 0.00 0.00 94 1012.2
20260509105035 7 354 1.6 3.2 0.00 0.00 0.00 94 1012.3
20260509104547 7 1 1.6 4.8 0.00 0.00 0.00 94 1012.3
20260509104035 7 345 3.2 4.8 0.00 0.00 0.00 94 1012.1
20260509103535 6 21 1.6 3.2 0.00 0.00 0.00 94 1012.1
20260509103048 6 13 1.6 3.2 0.00 0.00 0.00 94 1012.1
20260509102535 6 360 1.6 3.2 0.00 0.00 0.00 93 1012.1
20260509102036 7 360 0.0 3.2 0.00 0.00 0.00 94 1012.0
20260509101553 7 360 1.6 4.8 0.00 0.00 0.00 94 1012.0
20260509101035 7 0 1.6 4.8 0.00 0.00 0.00 94 1012.3
20260509100535 6 359 1.6 4.8 0.00 0.00 0.00 94 1012.2
20260509100045 6 0 0.0 3.2 0.00 0.00 0.00 94 1012.2
20260509095535 6 0 0.0 3.2 0.00 0.00 0.00 94 1012.0
20260509095034 6 5 1.6 4.8 0.00 0.00 0.00 93 1012.1
20260509094539 6 347 0.0 4.8 0.00 0.00 0.00 93 1012.0
20260509094035 6 347 3.2 4.8 0.00 0.00 0.00 93 1012.1